Regional Weather Roundup
Issued by NWS

Home | Current Version | Previous Version | Text Only | Print | Product List | Glossary Off
Versions: 1 2 3 4 5 6 7 8 9 10 11 12 13 14 15 16 17 18 19 20 21 22 23 24 25 26 27 28 29 30 31 32 33 34 35 36 37 38 39 40 41 42 43 44 45 46 47 48 49 50

000
ASUS43 KDTX 161910
RWRMI
MICHIGAN HOURLY REGIONAL WEATHER ROUNDUP
NATIONAL WEATHER SERVICE DETROIT/PONTIAC MI
300 PM EDT WED APR 16 2014

NOTE: "FAIR" INDICATES FEW OR NO CLOUDS BELOW 12,000 FEET WITH NO
SIGNIFICANT WEATHER AND/OR OBSTRUCTION TO VISIBILITY.

MIZ047>049-052>055-059>063-066>070-074>076-081>083-162000-
SOUTHEAST LOWER MICHIGAN

CITY           SKY/WX    TMP DP  RH WIND       PRES   REMARKS
ADRIAN         SUNNY     42  17  36 S12       30.39F
ALMA           PTSUNNY   41  20  42 S9G20     30.35F
ANN ARBOR      MOSUNNY   41  19  41 S10       30.39F
BAD AXE        MOSUNNY   37  19  48 S12       30.41F
DETROIT CITY   MOSUNNY   41  20  43 S13       30.43F
DETROIT        CLOUDY    38  21  50 SE13      30.43F
FLINT          SUNNY     43  16  33 SE10      30.39F
GROSSE ILE     MOSUNNY   37  23  56 SE10      30.43F
HILLSDALE      MOSUNNY   42  18  37 S10G21    30.35F
HOWELL         MOSUNNY   41  15  34 S9        30.37F

CITY           SKY/WX    TMP DP  RH WIND       PRES   REMARKS
JACKSON        MOSUNNY   42  17  36 S15G23    30.36F
LAMBERTVILLE   MOSUNNY   43  21  42 E10       30.41F
LANSING        MOSUNNY   45  17  32 SE15      30.35F
LAPEER         NOT AVBL
MASON          MOSUNNY   42  19  39 SE9       30.36F
MONROE         MOSUNNY   39  21  48 SE8       30.41F
MT. CLEMENS    PTSUNNY   39  19  44 SE14      30.42F
PONTIAC        MOSUNNY   40  14  34 SE8G18    30.38F
PORT HOPE        N/A     34  24  67 SE20      30.41F
PORT HURON     SUNNY     39  16  38 S12       30.44S
TRI CITIES     PTSUNNY   41  18  39 S8G17     30.38F
YPSILANTI      MOSUNNY   44  20  38 SE15      30.41F
$$
MIZ043>046-050>051-056>058-064>065-071>073-077>080-162000-
SOUTHWEST LOWER MICHIGAN

CITY           SKY/WX    TMP DP  RH WIND       PRES   REMARKS
BATTLE CREEK   SUNNY     44  18  35 S15G22    30.33F
BENTON HARBOR  MOSUNNY   47  20  34 SE22G28   30.29F
BIG RAPIDS     PTSUNNY   40  21  46 SE13      30.30F
COLDWATER      SUNNY     43  17  36 S13G20    30.33F
HOLLAND        PTSUNNY   48  21  34 SE16G23   30.30F
GRAND RAPIDS   CLOUDY    46  20  35 S14G22    30.30F
KALAMAZOO      SUNNY     45  17  32 S14G24    30.32F
MARSHALL       SUNNY     44  18  35 S8G18     30.33F
MUSKEGON       PTSUNNY   46  17  31 SE16G26   30.29F
$$
MIZ016>042-162000-
NORTHERN LOWER MICHIGAN

CITY           SKY/WX    TMP DP  RH WIND       PRES   REMARKS
ALPENA         PTSUNNY   35  26  69 E15       30.39F
BEAVER ISLAND  CLOUDY    38  17  43 SE8G16    30.35S
BELLAIRE       CLOUDY    42  13  29 S6        30.32F
CADILLAC       PTSUNNY   39  20  46 S9        30.28F
CHARLEVOIX     PTSUNNY   36  22  56 N12       30.37S
FRANKFORT      CLOUDY    38  22  53 S10       30.32R
GAYLORD        MOSUNNY   37  15  40 S10       30.30F
GRAYLING       PTSUNNY   39  15  38 SE16G22   30.32F
HARBOR SPRINGS PTSUNNY   41  17  37 S6        30.33F
HOUGHTON LAKE  MOSUNNY   40  16  37 S12       30.33F
MANISTEE       CLOUDY    39  23  52 S6        30.31S
OSCODA         SUNNY     38  11  33 S15G22    30.41R
PELLSTON       MOSUNNY   39  14  36 CALM      30.35F
TRAVERSE CITY  CLOUDY    41  15  35 S10       30.31F
$$
MIZ007>008-015-162000-
EASTERN UPPER MICHIGAN

CITY           SKY/WX    TMP DP  RH WIND       PRES   REMARKS
KINROSS        PTSUNNY   34  14  44 S8        30.36S
MACKINAC ISLAN MOSUNNY   31  20  63 E8        30.37S
NEWBERRY       CLOUDY    31  20  62 S10       30.35R
S. S. MARIE      N/A     34  10  37 S3        30.37R
$$
MIZ004>006-011>014-085-162000-
CENTRAL UPPER MICHIGAN

CITY           SKY/WX    TMP DP  RH WIND       PRES   REMARKS
MANISTIQUE     CLOUDY    32  28  84 S7        30.34S
ESCANABA       CLOUDY    30  25  80 S13G18    30.32R VSB 1
MENOMINEE      CLOUDY    30  30 100 SE12      30.28F
SAWYER-GWINN   LGT SNOW  28  23  80 S9        30.28S
$$
MIZ001>003-009>011-084-162000-
WESTERN UPPER MICHIGAN

CITY           SKY/WX    TMP DP  RH WIND       PRES   REMARKS
IRON MOUNTAIN  SNOW      28  25  88 SE6       30.23F VSB 1/4
HOUGHTON       CLOUDY    30  18  60 SE10      30.25F
COPPER HARBOR    N/A     32  11  41 S6        30.29S
IRONWOOD       CLOUDY    27  21  80 E12       30.12F VSB 1/2
$$

ABBREVIATIONS USED IN REMARKS
   TC - TEMPERATURE IN CELSIUS
  WCI - WIND CHILL INDEX
   HX - HEAT INDEX
  VSB - VISIBILITY




USA.gov is the U.S. government's official web portal to all federal, state and local government web resources and services.